• In Lithuania
  • List of Countries
  • For 7 days
  • Water Temperature
  • Satellite Maps
  • Weather Map
  • Weather Widgets
  • user-avatar
    Login

    Hourly Weather Volosivka

    Today, 16 July, Monday

    Time Temperature Precipitation Wind Pressure Humidity
    00:00 +14°C° 0.4 mm 4 mps 725 mmHg 97%
    01:00 +14°C° 0.4 mm 4 mps 725 mmHg 97%
    02:00 +14°C° 0 mm 3 mps 725 mmHg 97%
    03:00 +14°C° 0.1 mm 3 mps 725 mmHg 97%
    04:00 +14°C° 0.1 mm 3 mps 725 mmHg 97%
    05:00 +14°C° 0.1 mm 4 mps 725 mmHg 97%
    06:00 +14°C° 0.1 mm 4 mps 725 mmHg 96%
    07:00 +15°C° 0.1 mm 4 mps 725 mmHg 95%
    08:00 +17°C° 0 mm 4 mps 725 mmHg 93%
    09:00 +18°C° 0.1 mm 4 mps 725 mmHg 91%
    10:00 +18°C° 0.1 mm 4 mps 724 mmHg 88%
    11:00 +19°C° 0.1 mm 4 mps 724 mmHg 86%
    12:00 +20°C° 0.3 mm 4 mps 724 mmHg 83%
    13:00 +21°C° 0.3 mm 4 mps 724 mmHg 80%
    14:00 +22°C° 0.3 mm 4 mps 724 mmHg 77%
    15:00 +22°C° 0.5 mm 4 mps 724 mmHg 77%
    16:00 +22°C° 0.5 mm 4 mps 723 mmHg 78%
    17:00 +22°C° 0.5 mm 4 mps 723 mmHg 78%
    18:00 +21°C° 1 mm 3 mps 723 mmHg 82%
    19:00 +20°C° 1 mm 3 mps 723 mmHg 86%
    20:00 +19°C° 1 mm 3 mps 722 mmHg 89%
    21:00 +18°C° 0.2 mm 2 mps 722 mmHg 91%
    22:00 +17°C° 0.2 mm 2 mps 722 mmHg 92%
    23:00 +16°C° 0.2 mm 2 mps 722 mmHg 94%

    Tomorrow, 17 July, Tuesday

    Time Temperature Precipitation Wind Pressure Humidity
    00:00 +16°C° 0 mm 2 mps 722 mmHg 95%
    01:00 +16°C° 0 mm 2 mps 722 mmHg 96%
    02:00 +16°C° 0 mm 3 mps 722 mmHg 97%
    03:00 +16°C° 0 mm 3 mps 722 mmHg 97%
    04:00 +16°C° 0 mm 3 mps 722 mmHg 98%
    05:00 +14°C° 0 mm 3 mps 722 mmHg 98%
    06:00 +16°C° 0.1 mm 3 mps 722 mmHg 97%
    07:00 +17°C° 0.1 mm 4 mps 722 mmHg 95%
    08:00 +18°C° 0.1 mm 4 mps 722 mmHg 94%
    09:00 +18°C° 0.1 mm 4 mps 722 mmHg 93%
    10:00 +18°C° 0.1 mm 4 mps 722 mmHg 92%
    11:00 +19°C° 0.1 mm 4 mps 722 mmHg 91%
    12:00 +20°C° 0.2 mm 4 mps 722 mmHg 86%
    13:00 +21°C° 0.2 mm 4 mps 722 mmHg 82%
    14:00 +23°C° 0.2 mm 4 mps 721 mmHg 77%
    15:00 +22°C° 0.6 mm 4 mps 721 mmHg 79%
    16:00 +22°C° 0.6 mm 3 mps 721 mmHg 81%
    17:00 +22°C° 0.6 mm 3 mps 721 mmHg 82%
    18:00 +21°C° 0.3 mm 3 mps 721 mmHg 86%
    19:00 +20°C° 0.3 mm 3 mps 721 mmHg 90%
    20:00 +19°C° 0.3 mm 3 mps 721 mmHg 93%
    21:00 +19°C° 0.4 mm 3 mps 721 mmHg 94%
    22:00 +18°C° 0.4 mm 3 mps 721 mmHg 95%
    23:00 +18°C° 0.4 mm 3 mps 721 mmHg 96%

    Day after tomorrow, 18 July, Wednesday

    Time Temperature Precipitation Wind Pressure Humidity
    00:00 +18°C° 0 mm 3 mps 721 mmHg 96%
    01:00 +18°C° 0 mm 4 mps 721 mmHg 97%
    02:00 +17°C° 0 mm 4 mps 721 mmHg 97%
    03:00 +17°C° 0.1 mm 4 mps 721 mmHg 97%
    04:00 +17°C° 0.1 mm 4 mps 721 mmHg 97%
    05:00 +17°C° 0.1 mm 4 mps 721 mmHg 97%
    06:00 +17°C° 0.1 mm 3 mps 721 mmHg 96%
    07:00 +18°C° 0.1 mm 3 mps 721 mmHg 95%
    08:00 +18°C° 0.1 mm 3 mps 721 mmHg 95%
    09:00 +19°C° 0.2 mm 3 mps 721 mmHg 94%
    10:00 +19°C° 0.2 mm 3 mps 721 mmHg 93%
    11:00 +19°C° 0.2 mm 3 mps 721 mmHg 92%
    12:00 +20°C° 0.4 mm 4 mps 721 mmHg 90%
    13:00 +21°C° 0.4 mm 5 mps 721 mmHg 88%
    14:00 +21°C° 0.4 mm 5 mps 720 mmHg 86%
    15:00 +21°C° 0.4 mm 5 mps 720 mmHg 87%
    16:00 +21°C° 0.4 mm 4 mps 720 mmHg 88%
    17:00 +21°C° 0.4 mm 4 mps 720 mmHg 88%
    18:00 +21°C° 1.1 mm 4 mps 720 mmHg 90%
    19:00 +20°C° 1.1 mm 4 mps 720 mmHg 92%
    20:00 +20°C° 1.1 mm 3 mps 720 mmHg 95%
    21:00 +19°C° 0.3 mm 3 mps 720 mmHg 95%
    22:00 +19°C° 0.3 mm 3 mps 720 mmHg 95%
    23:00 +19°C° 0.3 mm 3 mps 720 mmHg 96%

    19 July, Thursday

    Time Temperature Precipitation Wind Pressure Humidity
    00:00 +18°C° 0 mm 3 mps 720 mmHg 96%
    01:00 +18°C° 0 mm 2 mps 720 mmHg 97%
    02:00 +18°C° 0 mm 2 mps 720 mmHg 97%
    03:00 +18°C° 0.3 mm 2 mps 720 mmHg 97%
    04:00 +18°C° 0.3 mm 2 mps 721 mmHg 98%
    05:00 +18°C° 0.3 mm 3 mps 721 mmHg 98%
    06:00 +19°C° 0.3 mm 3 mps 721 mmHg 97%
    07:00 +20°C° 0.3 mm 3 mps 721 mmHg 96%
    08:00 +21°C° 0.3 mm 3 mps 721 mmHg 95%
    09:00 +21°C° 0.2 mm 3 mps 722 mmHg 93%
    10:00 +22°C° 0.2 mm 3 mps 722 mmHg 91%
    11:00 +22°C° 0.2 mm 3 mps 722 mmHg 90%
    12:00 +23°C° 0.5 mm 4 mps 722 mmHg 86%
    13:00 +25°C° 0.5 mm 4 mps 722 mmHg 83%
    14:00 +26°C° 0.5 mm 4 mps 722 mmHg 80%
    15:00 +26°C° 0.4 mm 5 mps 722 mmHg 80%
    16:00 +26°C° 0.4 mm 5 mps 722 mmHg 79%
    17:00 +26°C° 0.4 mm 5 mps 722 mmHg 79%
    18:00 +23°C° 0.2 mm 5 mps 722 mmHg 83%
    19:00 +22°C° 0.2 mm 4 mps 723 mmHg 87%
    20:00 +21°C° 0.2 mm 4 mps 723 mmHg 90%
    21:00 +20°C° 0.1 mm 4 mps 723 mmHg 92%
    22:00 +20°C° 0.1 mm 4 mps 723 mmHg 93%
    23:00 +19°C° 0.1 mm 4 mps 723 mmHg 95%

    20 July, Friday

    Time Temperature Precipitation Wind Pressure Humidity
    00:00 +19°C° 0 mm 4 mps 723 mmHg 95%
    01:00 +19°C° 0 mm 4 mps 723 mmHg 96%
    02:00 +18°C° 0 mm 4 mps 723 mmHg 97%
    03:00 +17°C° 0 mm 5 mps 724 mmHg 96%
    04:00 +17°C° 0 mm 5 mps 724 mmHg 96%
    05:00 +17°C° 0 mm 5 mps 724 mmHg 96%
    06:00 +19°C° 0.1 mm 5 mps 724 mmHg 95%
    07:00 +19°C° 0.1 mm 5 mps 724 mmHg 94%
    08:00 +19°C° 0.1 mm 5 mps 724 mmHg 93%
    09:00 +20°C° 0.2 mm 5 mps 724 mmHg 92%
    10:00 +20°C° 0.2 mm 5 mps 724 mmHg 91%
    11:00 +20°C° 0.2 mm 5 mps 725 mmHg 91%
    12:00 +21°C° 0.2 mm 6 mps 725 mmHg 87%
    13:00 +22°C° 0.2 mm 6 mps 725 mmHg 84%
    14:00 +23°C° 0.2 mm 6 mps 725 mmHg 81%
    15:00 +23°C° 0.3 mm 6 mps 725 mmHg 81%
    16:00 +23°C° 0.3 mm 6 mps 725 mmHg 81%
    17:00 +23°C° 0.3 mm 6 mps 725 mmHg 80%
    18:00 +22°C° 0.1 mm 5 mps 725 mmHg 84%
    19:00 +21°C° 0.1 mm 5 mps 725 mmHg 87%
    20:00 +20°C° 0.1 mm 4 mps 725 mmHg 90%
    21:00 +20°C° 0 mm 4 mps 725 mmHg 91%
    22:00 +19°C° 0 mm 4 mps 725 mmHg 92%
    23:00 +18°C° 0 mm 4 mps 725 mmHg 93%

    21 July, Saturday

    Time Temperature Precipitation Wind Pressure Humidity
    00:00 +18°C° 0 mm 4 mps 725 mmHg 94%
    01:00 +17°C° 0 mm 4 mps 725 mmHg 95%
    02:00 +17°C° 0 mm 4 mps 725 mmHg 96%
    03:00 +17°C° 0 mm 3 mps 725 mmHg 96%
    04:00 +16°C° 0 mm 3 mps 725 mmHg 97%
    05:00 +16°C° 0 mm 3 mps 725 mmHg 97%
    06:00 +17°C° 0 mm 3 mps 726 mmHg 94%
    07:00 +19°C° 0 mm 3 mps 726 mmHg 91%
    08:00 +20°C° 0 mm 3 mps 726 mmHg 89%
    09:00 +21°C° 0.1 mm 3 mps 726 mmHg 84%
    10:00 +22°C° 0.1 mm 3 mps 726 mmHg 79%
    11:00 +25°C° 0.1 mm 3 mps 726 mmHg 74%
    12:00 +25°C° 0.4 mm 3 mps 726 mmHg 72%
    13:00 +25°C° 0.4 mm 3 mps 725 mmHg 71%
    14:00 +26°C° 0.4 mm 3 mps 725 mmHg 69%
    15:00 +26°C° 0.3 mm 3 mps 725 mmHg 70%
    16:00 +26°C° 0.3 mm 3 mps 725 mmHg 70%
    17:00 +26°C° 0.3 mm 3 mps 725 mmHg 71%
    18:00 +24°C° 0 mm 2 mps 725 mmHg 75%
    19:00 +23°C° 0 mm 2 mps 724 mmHg 80%
    20:00 +22°C° 0 mm 1 mps 724 mmHg 84%
    21:00 +21°C° 0 mm 1 mps 724 mmHg 86%
    22:00 +20°C° 0 mm 1 mps 724 mmHg 88%
    23:00 +19°C° 0 mm 1 mps 725 mmHg 90%
    Show more